If you wish to contribute or participate in the discussions about articles you are invited to join SKYbrary as a registered user

 Actions

La Roche-sur-Yon Airport

From SKYbrary Wiki

LFRI
Airport
ICAO: LFRI – IATA: EDM
Summary
Name La Roche-sur-Yon Airport
Region Europe
Territory France FR.gif
Location , Pays de la Loire
Serving La Roche-sur-yon
Elevation 91.135 m
299 ft
299 ft91.135 m
Type medium airport
Coordinates 46° 42' 7.00" N, 1° 22' 43.05" W
Runways
Designator Length Width Surface ROPS
10/28 1550 m5,085.302 ft
30 m98.425 ft
ASP /


METAR
Observation LFRI 220500Z AUTO 01004KT CAVOK 14/14 Q1023
Station La Roche-Sur-Yon
Date/Time 22 July 2019 05:00:00
Wind direction 10°
Wind speed 04 kts
Lowest cloud amount clouds and visibility OK
Temperature 14°C
Dew point 14°C
Humidity 100%
QNH 1023 hPa
Weather condition n/a